Flag for Tunisia Weather past 2 weeks in Sfax, Tunisia

Now
61 °F

Clear.


Feels Like: 61 °F
Forecast: 57 / 72 °F
Wind: 3 mph from West

Location: Sfax El-Maou

Current Time: Apr 28, 2015 at 3:48:19 AM

Latest Report: Apr 28, 2015 at 2:00 AM


Visibility: 4 mi

Pressure: 29.95 "Hg

Humidity: 77%

Dew point: 54 °F

Location of SfaxLocation

Historic Weather in Sfax — Graph

°F

Sfax temperature yesterday

Maximum temperature yesterday: 81 °F (at 3:00 PM)
Minimum temperature yesterday: 61 °F (at 5:00 AM)
Average temperature yesterday: 69 °F

Past Weeks' High & Low Weather Summary

 TemperatureHumidityPressure
High82 °F (Apr 19, 11:00 AM)100% (Apr 15, 8:00 AM)30.36 "Hg (Apr 15, 8:00 AM)
Low50 °F (Apr 13, 6:00 AM)26% (Apr 17, 2:00 PM)29.71 "Hg (Apr 27, 5:00 AM)
Average65 °F66%30.07 "Hg
* Reported Apr 13 2:00 AM — Apr 28 2:00 AM, Sfax, Weather by CustomWeather, © 2015

Note: Actual official high and low records may vary slightly from our data, if they occured in-between our weather recording intervals... More about our weather records

Advertising

Sfax weather history for previous 24 hours

 ConditionsComfort  
Time TempWeatherWind HumidityBarometerVisibility
2:00 AM
Tue, Apr 28
61 °FClear.3 mph77%29.95 "Hg4 mi
1:00 AM61 °FClear.3 mph77%29.95 "Hg4 mi
12:00 AM64 °FClear.1 mph73%29.95 "Hg4 mi
11:00 PM
Mon, Apr 27
66 °FClear.3 mph68%29.95 "Hg4 mi
10:00 PM66 °FClear.6 mph64%29.92 "Hg4 mi
9:00 PM66 °FClear.9 mph64%29.92 "Hg4 mi
8:00 PM66 °FClear.12 mph68%29.86 "Hg4 mi
7:00 PM68 °FClear.15 mph64%29.83 "Hg4 mi
6:00 PM72 °FClear.20 mph53%29.80 "Hg4 mi
5:00 PM73 °FClear.18 mph50%29.80 "Hg4 mi
4:00 PM75 °FClear.16 mph50%29.77 "Hg4 mi
3:00 PM81 °FPassing clouds.15 mph37%29.74 "Hg4 mi
2:00 PM79 °FPassing clouds.20 mph37%29.74 "Hg4 mi
1:00 PM77 °FPassing clouds.25 mph42%29.74 "Hg4 mi
12:00 PM73 °FScattered clouds.24 mph53%29.77 "HgN/A
11:00 AM73 °FScattered clouds.25 mph57%29.77 "HgN/A
10:00 AM72 °FScattered clouds.16 mph57%29.77 "HgN/A
9:00 AM66 °FScattered clouds.20 mph73%29.77 "HgN/A
7:00 AM63 °FPassing clouds.13 mph88%29.71 "HgN/A
6:00 AM61 °FScattered clouds.14 mph88%29.71 "HgN/A
5:00 AM61 °FPassing clouds.12 mph88%29.71 "HgN/A
4:00 AM63 °FPassing clouds.8 mph83%29.74 "HgN/A
3:00 AM63 °FPassing clouds.7 mph83%29.74 "HgN/A
Weather by CustomWeather, © 2015

See weather overviewHow to use our weather pages